Location: Pl�tzky
(52.0521°N, 11.8020°E)
Time: 10:34:19
(UTC+00:00)

N. Korean satellite - Pass Details

Date: 01 February 2021
Orbit: 451 x 502 km, 97.2° (Epoch: 07 March)

Event Time Altitude Azimuth Distance (km) Brightness Sun altitude
Rises 16:56:28 0° 212° (SSW) 2,557 11.1 -8.8°
Reaches altitude 10° 16:59:27 10° 240° (WSW) 1,671 10.8 -9.2°
Maximum altitude 17:01:16 13° 271° (W) 1,468 10.3 -9.5°
Drops below altitude 10° 17:03:05 10° 302° (WNW) 1,663 9.9 -9.7°
Sets 17:06:04 0° 330° (NNW) 2,536 10.4 -10.2°
